Tacoma Narrows, WA
on Tuesday, November 6, 2012

Tuesday
Previous Day Next Day
Daily Summary
 ActualAverageRecord
Temperature
Mean Temperature °F / °C °F / °C  
Max Temperature 55°F / 13°C 51°F / 10°C 61°F / 16°C (2006)
Min Temperature 44°F / 7°C 41°F / 5°C 32°F / 0°C (2003)
Degree Days
Heating Degree Days 16    
Moisture
Dew Point 46°F / 8°C   
Average Humidity 89    
Maximum Humidity 97    
Minimum Humidity 77    
Precipitation
Precipitation 0.01 in / 0.25 cm in / cm in / cm ()
Wind
Wind Speed 3 mph / 5 km/h   
Max Wind Speed 14 mph / 23 km/h   
Max Gust Speed 24 mph / 39 km/h   
Visibility 5 miles / 8 kilometers   
Events Fog , Rain   
Averages and records for this station are not official NWS values.
Key: T is trace of precipitation, MM is missing value
Source: NWS Daily Summary
Seasonal Weather Averages
Time(PST)TemperatureDew PointHumidity Pressure Visibility Wind DirectionWind SpeedGust SpeedPrecipitationEvents Conditions
12:53 AM 46.0°F / 7.8°C 43.0°F / 6.1°C 89% 30.15 in / 1021.0 hPa 6.0 miles / 9.7 kilometers North 3.5 mph / 5.6 km/h - N/A   Clear
1:53 AM 46.9°F / 8.3°C 44.1°F / 6.7°C 90% 30.14 in / 1020.4 hPa 6.0 miles / 9.7 kilometers Calm Calm - N/A   Clear
2:53 AM 45.0°F / 7.2°C 43.0°F / 6.1°C 93% 30.12 in / 1019.9 hPa 5.0 miles / 8.0 kilometers Calm Calm - N/A   Scattered Clouds
3:02 AM 44.6°F / 7.0°C 42.8°F / 6.0°C 93% 30.11 in / 1019.5 hPa 4.0 miles / 6.4 kilometers Calm Calm - N/A   Mostly Cloudy
3:53 AM 45.0°F / 7.2°C 42.1°F / 5.6°C 90% 30.11 in / 1019.4 hPa 5.0 miles / 8.0 kilometers Calm Calm - N/A   Mostly Cloudy
4:00 AM 44.6°F / 7.0°C 42.8°F / 6.0°C 93% 30.10 in / 1019.2 hPa 6.0 miles / 9.7 kilometers Calm Calm - N/A   Scattered Clouds
4:53 AM 46.0°F / 7.8°C 43.0°F / 6.1°C 89% 30.08 in / 1018.6 hPa 5.0 miles / 8.0 kilometers Calm Calm - N/A   Partly Cloudy
5:02 AM 46.4°F / 8.0°C 44.6°F / 7.0°C 93% 30.08 in / 1018.5 hPa 4.0 miles / 6.4 kilometers Calm Calm - N/A   Scattered Clouds
5:10 AM 46.4°F / 8.0°C 44.6°F / 7.0°C 93% 30.07 in / 1018.2 hPa 3.0 miles / 4.8 kilometers Calm Calm - N/A   Mostly Cloudy
5:24 AM 46.4°F / 8.0°C 44.6°F / 7.0°C 93% 30.07 in / 1018.2 hPa 2.5 miles / 4.0 kilometers Calm Calm - N/A   Overcast
5:34 AM 46.4°F / 8.0°C 44.6°F / 7.0°C 93% 30.07 in / 1018.2 hPa 3.0 miles / 4.8 kilometers Calm Calm - N/A   Overcast
5:53 AM 46.9°F / 8.3°C 45.0°F / 7.2°C 93% 30.07 in / 1018.1 hPa 2.0 miles / 3.2 kilometers Calm Calm - N/A   Overcast
6:13 AM 46.4°F / 8.0°C 44.6°F / 7.0°C 93% 30.06 in / 1017.8 hPa 1.8 miles / 2.8 kilometers Calm Calm - N/A   Overcast
6:37 AM 46.4°F / 8.0°C 44.6°F / 7.0°C 93% 30.05 in / 1017.5 hPa 0.8 miles / 1.2 kilometers Calm Calm - N/A   Overcast
6:53 AM 46.0°F / 7.8°C 44.1°F / 6.7°C 93% 30.06 in / 1017.7 hPa 0.5 miles / 0.8 kilometers West 3.5 mph / 5.6 km/h - N/A Fog Fog
7:23 AM 46.4°F / 8.0°C 44.6°F / 7.0°C 93% 30.05 in / 1017.5 hPa 0.2 miles / 0.4 kilometers Calm Calm - N/A Fog Fog
7:53 AM 46.9°F / 8.3°C 45.0°F / 7.2°C 93% 30.06 in / 1017.7 hPa 0.5 miles / 0.8 kilometers Calm Calm - N/A Fog Fog
8:53 AM 46.9°F / 8.3°C 46.0°F / 7.8°C 97% 30.05 in / 1017.4 hPa 0.5 miles / 0.8 kilometers SSE 3.5 mph / 5.6 km/h - N/A Fog Fog
9:53 AM 46.9°F / 8.3°C 46.0°F / 7.8°C 97% 30.03 in / 1016.8 hPa 0.5 miles / 0.8 kilometers South 3.5 mph / 5.6 km/h - N/A Fog Fog
10:53 AM 46.9°F / 8.3°C 45.0°F / 7.2°C 93% 30.02 in / 1016.5 hPa 0.5 miles / 0.8 kilometers SSW 5.8 mph / 9.3 km/h - N/A Fog Fog
11:00 AM 48.2°F / 9.0°C 46.4°F / 8.0°C 93% 30.01 in / 1016.1 hPa 2.0 miles / 3.2 kilometers SSW 5.8 mph / 9.3 km/h - N/A   Overcast
11:53 AM 48.0°F / 8.9°C 46.0°F / 7.8°C 93% 29.98 in / 1015.2 hPa 3.0 miles / 4.8 kilometers South 9.2 mph / 14.8 km/h - N/A   Overcast
11:59 AM 48.2°F / 9.0°C 46.4°F / 8.0°C 93% 29.98 in / 1015.1 hPa 3.0 miles / 4.8 kilometers SSW 9.2 mph / 14.8 km/h - N/A   Overcast
12:00 PM 48.2°F / 9.0°C 46.4°F / 8.0°C 93% 29.98 in / 1015.1 hPa 3.0 miles / 4.8 kilometers SSW 9.2 mph / 14.8 km/h - N/A   Overcast
12:53 PM 50.0°F / 10.0°C 48.0°F / 8.9°C 93% 29.99 in / 1015.5 hPa 3.0 miles / 4.8 kilometers Variable 3.5 mph / 5.6 km/h - N/A   Overcast
1:00 PM 51.8°F / 11.0°C 48.2°F / 9.0°C 88% 29.98 in / 1015.1 hPa 6.0 miles / 9.7 kilometers Calm Calm - N/A   Overcast
1:53 PM 53.1°F / 11.7°C 48.9°F / 9.4°C 86% 29.99 in / 1015.4 hPa 6.0 miles / 9.7 kilometers SSW 8.1 mph / 13.0 km/h - N/A   Overcast
2:53 PM 54.0°F / 12.2°C 50.0°F / 10.0°C 86% 30.00 in / 1015.7 hPa 5.0 miles / 8.0 kilometers SSW 6.9 mph / 11.1 km/h - 0.00 in / 0.0 cm Rain Light Rain
3:53 PM 55.0°F / 12.8°C 50.0°F / 10.0°C 83% 30.00 in / 1015.8 hPa 7.0 miles / 11.3 kilometers SSW 9.2 mph / 14.8 km/h - 0.01 in / 0.3 cm Rain Light Rain
4:53 PM 55.0°F / 12.8°C 50.0°F / 10.0°C 83% 29.99 in / 1015.6 hPa 10.0 miles / 16.1 kilometers SSW 10.4 mph / 16.7 km/h - 0.00 in / 0.0 cm   Overcast
5:53 PM 55.0°F / 12.8°C 48.9°F / 9.4°C 80% 29.99 in / 1015.3 hPa 10.0 miles / 16.1 kilometers SSW 10.4 mph / 16.7 km/h 17.3 mph / 27.8 km/h 0.00 in / 0.0 cm   Overcast
6:00 PM 53.6°F / 12.0°C 50.0°F / 10.0°C 88% 29.98 in / 1015.1 hPa 10.0 miles / 16.1 kilometers SSW 10.4 mph / 16.7 km/h - N/A   Overcast
6:53 PM 54.0°F / 12.2°C 48.9°F / 9.4°C 83% 30.00 in / 1015.7 hPa 10.0 miles / 16.1 kilometers SW 8.1 mph / 13.0 km/h - N/A   Overcast
7:53 PM 52.0°F / 11.1°C 46.9°F / 8.3°C 83% 30.01 in / 1016.3 hPa 10.0 miles / 16.1 kilometers South 11.5 mph / 18.5 km/h 20.7 mph / 33.3 km/h N/A   Mostly Cloudy
8:01 PM 51.8°F / 11.0°C 46.4°F / 8.0°C 82% 30.01 in / 1016.1 hPa 10.0 miles / 16.1 kilometers SSW 10.4 mph / 16.7 km/h 18.4 mph / 29.6 km/h N/A   Scattered Clouds
8:53 PM 52.0°F / 11.1°C 45.0°F / 7.2°C 77% 30.03 in / 1016.8 hPa 10.0 miles / 16.1 kilometers SSW 13.8 mph / 22.2 km/h 24.2 mph / 38.9 km/h N/A   Clear
9:53 PM 51.1°F / 10.6°C 45.0°F / 7.2°C 80% 30.05 in / 1017.5 hPa 10.0 miles / 16.1 kilometers SSW 11.5 mph / 18.5 km/h 19.6 mph / 31.5 km/h N/A   Clear
10:53 PM 50.0°F / 10.0°C 45.0°F / 7.2°C 83% 30.06 in / 1017.7 hPa 10.0 miles / 16.1 kilometers South 11.5 mph / 18.5 km/h - N/A   Scattered Clouds
11:53 PM 50.0°F / 10.0°C 44.1°F / 6.7°C 80% 30.05 in / 1017.6 hPa 10.0 miles / 16.1 kilometers SSW 11.5 mph / 18.5 km/h - N/A   Clear
Moon Phase
Nov. 06 Nov. 06 Nov. 13 Nov. 20 Nov. 28
Sunrise:07:01 AM (PST) Moon Rise:11:35 PM (PST)11/6
Sunset:04:45 PM (PST) Moon Set:12:53 PM (PST)11/6

Copyright © 2014 The Weather Underground, Inc.